Date,TemperatureHighF,TemperatureAvgF,TemperatureLowF,DewpointHighF,DewpointAvgF,DewpointLowF,HumidityHigh,HumidityAvg,HumidityLow,PressureMaxIn,PressureMinIn,WindSpeedMaxMPH,WindSpeedAvgMPH,GustSpeedMaxMPH,PrecipitationSumIn
2014-1-1,39.9,30.6,17.8,11.7,6.3,-0.2,65,37,23,30.25,30.06,7,2,14,0.00
2014-1-2,26.4,17.5,8.1,17.4,8.2,-1.0,72,66,59,30.21,29.70,9,3,14,0.00
2014-1-3,25.2,13.5,2.1,14.4,-2.5,-19.1,71,50,27,30.25,29.55,11,4,17,0.00
2014-1-4,35.1,24.3,-1.8,15.7,2.3,-13.5,59,41,20,30.36,30.15,10,3,14,0.00
2014-1-5,49.5,38.4,18.9,36.3,27.8,8.0,90,68,31,30.17,29.80,4,1,10,0.08
2014-1-6,64.4,49.9,34.2,63.7,44.9,20.1,98,83,56,30.00,29.19,19,3,27,0.47
2014-1-7,30.9,18.4,12.6,20.0,-12.1,-18.3,71,25,20,30.07,29.40,8,2,17,0.01
2014-1-8,33.8,22.4,10.6,6.9,-2.5,-14.7,56,35,21,30.32,30.10,8,2,11,0.00
2014-1-9,42.4,29.6,16.0,13.0,7.1,0.5,65,41,21,30.50,30.29,7,2,14,0.00
2014-1-10,45.1,37.2,14.9,38.2,32.0,5.8,91,81,65,30.44,30.14,4,1,6,0.05
2014-1-11,65.1,57.5,39.0,63.7,56.0,36.9,98,94,88,30.12,29.22,14,4,21,0.45
2014-1-12,59.2,48.0,41.5,56.9,32.3,25.6,92,55,43,29.84,29.18,12,3,23,0.02
2014-1-13,60.8,50.1,31.8,44.8,35.1,25.5,86,59,33,30.04,29.81,11,3,16,0.00
2014-1-14,54.0,51.8,47.8,51.4,49.4,46.9,97,92,78,29.77,29.50,8,1,11,0.46
2014-1-15,59.4,46.8,34.3,45.9,38.7,32.8,95,75,50,29.90,29.65,8,1,14,0.00
2014-1-16,46.6,42.4,35.2,43.9,39.2,33.1,96,89,81,29.80,29.71,2,0,4,0.00
2014-1-17,55.2,44.5,34.2,42.2,29.8,23.6,95,59,31,29.85,29.77,8,2,13,0.00
2014-1-18,41.0,38.6,34.0,38.0,35.5,27.5,91,89,77,29.77,29.50,2,0,3,0.09
2014-1-19,45.0,37.9,33.1,35.7,26.1,22.6,91,63,46,29.60,29.43,8,2,15,0.06
2014-1-20,50.0,42.3,29.7,33.0,26.8,2.7,77,54,31,29.74,29.37,11,3,20,0.15
2014-1-21,28.6,20.0,14.9,8.2,0.3,-10.7,70,45,21,29.91,29.72,8,2,15,0.00
2014-1-22,29.1,18.6,12.6,5.9,-9.4,-15.7,66,28,20,29.72,29.51,11,4,18,0.00
2014-1-23,35.8,21.1,4.6,2.4,-6.8,-12.3,53,29,20,30.02,29.75,7,2,13,0.00
2014-1-24,30.6,19.9,10.6,-1.4,-7.2,-12.7,46,30,20,30.12,29.95,8,2,15,0.00
2014-1-25,41.7,34.3,16.5,27.3,20.0,-4.6,75,56,34,29.89,29.23,15,4,25,0.00
2014-1-26,32.7,25.1,19.0,18.1,-3.7,-10.7,67,28,21,29.72,29.23,10,3,19,0.00
2014-1-27,20.1,19.6,18.5,-8.4,-9.5,-13.2,28,26,23,29.94,29.92,8,2,11,0.04
2014-1-28,24.1,17.0,9.9,-9.3,-14.8,-22.7,26,23,19,30.26,29.96,11,2,16,0.01
2014-1-29,32.2,21.8,13.1,3.5,-6.9,-15.7,59,29,19,30.16,29.93,8,2,15,0.00
2014-1-30,37.2,24.0,5.5,3.7,-3.1,-15.9,55,32,20,30.38,30.17,8,2,12,0.00
2014-1-31,48.2,36.3,19.2,19.5,10.6,-0.4,73,36,21,30.15,29.97,8,2,14,0.00
2014-2-1,52.0,40.0,27.3,25.8,20.2,14.9,72,47,25,30.29,29.94,9,2,15,0.00
2014-2-2,60.8,44.7,33.8,40.4,36.0,27.0,93,74,36,30.02,29.82,8,1,11,0.01
2014-2-3,36.9,30.0,22.6,29.7,23.5,15.6,86,77,48,30.23,30.03,8,0,11,0.01
2014-2-4,44.8,30.6,10.2,22.4,17.3,3.3,80,60,32,30.40,30.23,6,1,8,0.14
2014-2-5,30.9,26.9,23.5,26.8,22.1,17.3,87,82,74,30.27,29.60,8,2,12,0.00
2014-2-6,39.2,23.3,12.0,17.5,4.2,-4.9,79,48,21,30.22,29.89,5,1,9,0.04
2014-2-7,38.5,23.6,1.2,12.2,2.6,-8.5,69,43,21,30.22,30.12,9,1,12,0.01
2014-2-8,36.9,24.4,1.8,6.9,-2.2,-8.0,68,34,19,30.25,30.09,7,1,11,0.00
2014-2-9,41.0,30.0,16.7,15.8,10.0,-2.4,57,43,28,30.11,29.93,7,2,11,0.01
2014-2-10,35.2,23.6,7.5,13.7,2.1,-5.8,74,41,23,30.16,29.90,10,3,14,0.01
2014-2-11,32.5,18.9,-0.8,7.3,-4.9,-11.9,67,37,20,30.38,30.17,10,2,17,0.00
2014-2-12,36.0,20.2,-4.2,-0.9,-6.3,-14.9,63,33,19,30.51,30.38,6,1,8,0.00
2014-2-13,32.4,27.1,14.5,30.3,22.6,0.9,92,83,52,30.33,29.11,11,2,18,0.00
2014-2-14,39.0,32.5,23.9,30.5,23.6,18.4,93,70,57,29.71,28.83,11,1,20,0.15
2014-2-15,37.9,30.0,20.1,29.9,24.4,16.5,90,80,61,29.81,29.46,4,1,9,0.00
2014-2-16,37.2,28.4,20.3,25.7,5.7,0.3,88,39,23,29.91,29.46,9,3,15,0.00
2014-2-17,36.0,24.0,8.2,2.5,-6.8,-14.2,52,26,18,30.31,29.93,11,3,17,0.00
2014-2-18,27.7,21.4,2.8,23.5,12.8,-9.7,84,70,43,30.30,29.86,4,1,8,0.00
2014-2-19,37.8,30.8,13.6,30.2,23.9,8.1,89,76,52,30.06,29.68,8,1,11,0.08
2014-2-20,56.8,40.1,29.5,30.7,24.1,13.8,89,58,20,30.17,29.81,6,1,10,0.38
2014-2-21,39.9,36.9,32.4,37.9,34.7,30.3,95,91,87,30.10,29.65,4,1,6,0.14
2014-2-22,56.7,45.2,25.5,39.5,23.3,14.6,96,47,21,29.94,29.82,14,3,23,0.01
2014-2-23,58.5,45.9,31.3,33.4,23.1,16.0,78,44,22,29.94,29.78,6,1,9,0.00
2014-2-24,39.4,31.5,22.5,27.0,3.3,-6.0,77,31,21,29.91,29.71,13,4,21,0.00
2014-2-25,34.5,25.2,15.3,4.4,0.6,-4.1,53,35,22,29.93,29.83,11,3,18,0.00
2014-2-26,35.8,21.8,7.0,6.0,-5.8,-21.2,64,30,20,29.90,29.71,10,2,17,0.00
2014-2-27,34.2,16.7,2.1,22.4,-3.7,-17.0,73,41,19,29.86,29.54,11,2,19,0.00
2014-2-28,30.6,18.4,6.4,-2.3,-12.5,-22.2,35,24,18,30.38,29.88,8,2,17,0.00
2014-3-1,42.3,29.2,-0.2,19.2,5.5,-14.9,60,38,20,30.40,30.11,8,2,12,0.00
2014-3-2,45.0,35.4,29.8,22.6,16.8,8.1,59,46,39,30.04,29.92,6,1,10,0.00
2014-3-3,30.0,21.4,7.7,8.6,-5.1,-16.1,48,31,20,30.23,29.95,8,2,14,0.00
2014-3-4,35.6,22.6,-0.8,4.8,-5.7,-13.3,60,30,19,30.33,30.20,6,1,8,0.00
2014-3-5,31.5,26.4,19.9,17.0,10.9,4.1,67,52,40,30.39,30.17,5,1,8,0.00
2014-3-6,37.4,23.8,5.4,3.0,-6.7,-18.8,48,26,19,30.58,30.44,6,2,9,0.00
2014-3-7,43.2,30.0,1.4,20.5,10.2,-8.6,66,45,26,30.45,29.91,8,1,11,0.00
2014-3-8,62.1,46.3,21.9,28.4,22.5,15.2,76,43,21,29.90,29.66,5,2,9,0.00
2014-3-9,47.1,38.2,27.0,24.1,8.4,2.4,64,30,20,29.90,29.82,10,2,18,0.00
2014-3-10,49.6,36.3,29.1,25.9,21.5,2.7,72,56,30,29.84,29.63,4,1,8,0.00
2014-3-11,63.0,49.4,29.8,39.1,7.3,-54.9,93,35,1,29.67,29.18,29,2,125,0.00
2014-3-12,55.2,42.3,35.1,-43.8,-51.7,-56.8,1,1,1,29.32,28.63,8,1,11,0.34
2014-3-13,36.3,19.9,14.2,-56.0,-65.7,-69.2,1,1,1,29.51,27.68,4,0,7,0.04
2014-3-14,41.0,31.4,7.2,-52.6,-58.5,-74.5,1,1,1,29.77,29.55,12,3,17,0.00
2014-3-15,60.4,47.2,36.0,-40.7,-48.7,-56.2,1,1,1,29.52,29.26,13,3,21,0.05
2014-3-16,39.2,31.7,24.3,-54.4,-58.3,-63.6,1,1,1,29.79,29.51,11,4,23,0.00
2014-3-17,38.1,25.9,15.3,-54.3,-61.9,-68.8,1,1,1,29.76,29.63,8,2,16,0.00
2014-3-18,47.1,34.5,11.3,-48.7,-56.6,-71.8,1,1,1,30.39,29.58,8,1,9,0.00
2014-3-19,48.0,38.5,17.8,-48.4,-54.1,-67.7,1,1,1,30.42,30.03,0,0,0,0.01
2014-3-20,55.2,44.2,32.9,-43.9,-50.6,-58.1,1,1,1,29.99,29.68,0,0,0,0.31
2014-3-21,48.9,39.3,29.8,-47.6,-53.6,-59.4,1,1,1,30.07,29.81,0,0,0,0.00
2014-3-22,61.5,45.2,21.7,-40.1,-50.0,-65.2,1,1,1,30.11,29.73,0,0,0,0.00
2014-3-23,44.2,37.1,25.3,-50.5,-55.1,-62.9,1,1,1,30.10,29.97,0,0,0,0.00
2014-3-24,37.8,27.3,13.8,-54.5,-61.0,-69.5,1,1,1,30.20,30.08,0,0,0,0.00
2014-3-25,42.3,32.8,12.2,-52.3,-57.6,-71.2,1,1,1,30.17,29.94,0,0,0,0.00
2014-3-26,36.1,31.0,26.1,-55.5,-58.8,-61.8,1,1,1,30.00,29.66,0,0,0,0.17
2014-3-27,50.9,37.8,17.8,-46.4,-54.5,-67.7,1,1,1,30.37,30.09,0,0,0,0.00
2014-3-28,61.5,47.7,32.5,-40.4,-48.4,-58.3,1,1,1,30.29,30.01,0,0,0,0.06
2014-3-29,55.8,44.4,36.5,-43.9,-50.5,-55.9,1,1,1,30.27,30.09,0,0,0,0.40
2014-3-30,41.7,39.8,36.7,-52.0,-53.3,-55.2,1,1,1,29.99,29.67,0,0,0,1.44
2014-3-31,41.0,37.4,34.3,-52.5,-54.8,-57.2,1,1,1,30.05,29.74,0,0,0,0.35
2014-4-1,62.6,49.7,29.5,-39.6,-47.2,-60.3,1,1,1,30.16,30.05,0,0,0,0.00
2014-4-2,65.8,49.8,28.2,-37.4,-47.2,-61.1,1,1,1,30.18,30.06,0,0,0,0.00
2014-4-3,63.0,51.8,29.8,-39.2,-45.9,-60.0,1,1,1,30.15,30.08,0,0,0,0.00
2014-4-4,54.0,46.0,34.7,-44.5,-49.4,-57.0,1,1,1,30.19,29.96,0,0,0,0.01
2014-4-5,56.1,46.0,0.0,-43.2,-49.3,-56.2,1,1,1,30.00,29.75,0,0,0,0.12
2014-4-6,63.5,49.5,26.6,-38.8,-47.4,-62.1,1,1,1,30.24,30.01,0,0,0,0.00
2014-4-7,60.6,49.2,29.5,-40.5,-47.5,-60.3,1,1,1,30.27,29.93,0,0,0,0.01
2014-4-8,68.0,56.3,44.2,-36.0,-43.1,-51.0,1,1,1,29.88,29.37,0,0,0,0.28
2014-4-9,62.6,53.2,32.7,-39.3,-45.1,-58.2,1,1,1,29.86,29.59,0,0,0,0.00
2014-4-10,63.9,54.0,28.6,-38.6,-44.5,-60.2,1,1,1,30.20,30.06,0,0,0,0.00
2014-4-11,71.6,61.0,48.9,-33.9,-40.3,-48.1,1,1,1,30.08,29.96,0,0,0,0.01
2014-4-12,74.7,61.6,39.7,-32.0,-39.9,-53.8,1,1,1,30.26,30.02,0,0,0,0.05
2014-4-13,74.5,61.0,41.7,-32.3,-40.3,-52.6,1,1,1,30.30,30.06,0,0,0,0.01
2014-4-14,76.5,68.1,59.4,-30.9,-36.0,-41.7,1,1,1,30.07,29.95,0,0,0,0.00
2014-4-15,65.3,60.3,41.0,-37.7,-40.7,-53.0,1,1,1,29.95,29.62,0,0,0,0.80
2014-4-16,48.0,38.6,29.7,-48.2,-54.0,-59.8,1,1,1,30.63,29.80,0,0,0,0.28
2014-4-17,49.1,39.4,25.7,-47.6,-53.5,-62.6,1,1,1,30.82,30.65,0,0,0,0.00
2014-4-18,50.5,42.4,25.2,-46.6,-51.7,-63.0,1,1,1,30.68,30.32,0,0,0,0.00
2014-4-19,67.1,55.8,32.0,-36.5,-43.5,-58.7,1,1,1,30.47,30.22,0,0,0,0.00
2014-4-20,63.5,52.2,28.8,-38.8,-45.7,-60.7,1,1,1,30.56,30.37,0,0,0,0.00
2014-4-21,75.2,57.5,28.9,-31.8,-42.5,-60.3,1,1,1,30.36,29.89,0,0,0,0.00
2014-4-22,77.5,64.9,42.1,-30.3,-37.9,-52.4,1,1,1,29.89,29.54,0,0,0,0.01
2014-4-23,54.0,50.6,48.6,-45.0,-46.6,-48.1,1,1,1,29.53,29.47,0,0,0,0.37
2014-4-24,61.2,55.6,46.2,26.5,22.0,19.1,45,27,21,29.89,29.68,14,5,25,0.37
2014-4-25,71.6,58.6,0.0,31.5,23.6,14.4,70,29,11,29.97,29.78,11,3,14,0.00
2014-4-26,49.6,45.1,42.1,47.0,43.6,31.2,99,95,49,29.87,29.76,4,1,5,0.28
2014-4-27,55.8,48.0,41.0,49.7,42.3,37.4,99,81,63,30.06,29.82,8,2,11,0.07
2014-4-28,64.6,53.5,36.0,41.9,38.9,34.4,98,60,38,30.19,27.00,8,2,16,0.00
2014-4-29,47.1,43.1,40.1,41.3,36.9,35.0,97,79,69,30.51,30.21,8,3,17,0.00
2014-4-30,47.5,43.1,39.4,43.3,41.0,37.2,99,93,77,30.50,30.15,9,2,13,0.43
2014-5-1,74.3,57.3,42.4,63.3,54.3,42.2,99,91,68,30.13,29.66,6,1,10,0.57
2014-5-2,71.4,62.1,46.0,55.3,41.4,33.6,99,51,26,29.79,29.66,10,2,17,0.00
2014-5-3,72.0,62.7,39.4,48.8,40.2,30.2,99,48,23,29.85,29.71,10,2,20,0.00
2014-5-4,66.0,57.4,44.8,48.9,38.4,31.4,97,51,31,29.70,29.55,11,4,24,0.00
2014-5-5,67.3,57.6,43.3,45.4,41.3,38.1,92,56,38,29.85,29.61,11,3,15,0.00
2014-5-6,67.5,57.9,38.3,43.8,33.5,24.9,99,43,24,30.01,29.83,11,3,19,0.00
2014-5-7,73.6,61.3,34.3,36.1,25.8,16.8,89,32,13,30.17,30.05,8,2,12,0.00
2014-5-8,71.8,60.2,39.0,56.3,48.3,35.0,98,68,34,30.17,30.08,10,2,12,0.00
2014-5-9,57.7,54.3,0.0,56.5,53.4,51.1,99,94,89,30.22,29.92,4,1,7,0.04
2014-5-10,85.3,72.8,56.8,65.3,61.2,55.7,99,70,41,30.10,29.80,11,3,22,0.07
2014-5-11,84.2,75.3,56.8,61.2,35.5,22.1,97,30,11,30.00,29.84,11,4,21,0.02
2014-5-12,91.4,78.5,0.0,59.1,46.3,22.1,84,37,15,30.14,0.00,11,2,17,0.02
2014-5-13,65.8,55.6,43.3,59.2,42.5,37.8,85,62,43,30.36,30.08,9,2,12,0.00
2014-5-14,77.0,64.6,41.5,50.5,46.5,38.6,94,55,34,30.34,30.26,11,3,14,0.00
2014-5-15,77.7,69.6,59.4,65.3,62.5,49.5,96,79,63,30.31,30.23,11,4,18,0.00
2014-5-16,69.1,64.7,62.8,64.7,63.1,61.2,99,95,81,30.22,30.00,14,5,20,0.19
2014-5-17,77.9,68.5,53.8,64.7,50.1,39.7,99,57,27,30.07,29.85,9,2,16,0.30
2014-5-18,75.4,65.0,44.8,49.9,40.5,27.4,92,44,22,30.13,30.04,7,2,11,0.00
2014-5-19,68.0,59.3,49.1,48.0,38.7,30.6,80,49,26,30.12,30.05,8,2,15,0.00
2014-5-20,80.4,67.9,48.0,48.7,41.8,34.3,86,43,23,30.06,29.95,8,2,17,0.00
2014-5-21,84.9,68.4,43.0,53.7,47.3,38.0,99,53,22,30.02,29.93,10,2,12,0.00
2014-5-22,66.4,58.3,50.7,58.1,55.5,49.5,99,91,69,29.98,29.88,5,1,11,0.25
2014-5-23,62.4,55.7,50.9,59.1,54.4,50.6,99,96,84,30.00,29.88,2,0,4,0.08
2014-5-24,72.0,60.9,48.7,55.7,52.4,48.3,99,76,45,30.07,29.96,6,1,8,0.09
2014-5-25,76.5,65.8,49.5,64.9,56.8,49.2,99,75,47,30.11,30.03,7,1,10,0.02
2014-5-26,80.8,70.0,49.8,67.6,58.5,49.6,99,70,42,30.04,29.84,8,2,14,0.01
2014-5-27,79.3,64.7,49.3,68.1,57.5,49.0,99,79,54,29.96,29.83,8,2,11,0.04
2014-5-28,51.6,49.0,42.1,51.4,48.5,41.8,99,98,95,30.24,29.91,7,2,12,0.09
2014-5-29,73.6,60.6,35.1,51.4,43.2,31.9,99,58,24,30.26,30.16,6,1,11,0.00
2014-5-30,78.4,63.2,42.8,59.7,52.8,42.3,99,72,37,30.18,30.00,5,1,8,0.17
2014-5-31,71.8,60.8,43.5,55.0,46.8,32.5,99,64,33,30.32,30.06,8,2,14,0.01
2014-6-1,84.9,70.7,39.2,54.4,44.4,37.1,99,45,21,30.36,30.26,8,1,12,0.00
2014-6-2,88.2,74.5,46.8,60.0,52.9,46.0,98,51,29,30.27,30.05,8,2,13,0.00
2014-6-3,88.0,75.9,52.2,64.6,60.3,51.6,98,61,43,30.07,29.92,9,2,16,0.00
2014-6-4,73.2,68.4,62.8,64.3,62.7,59.3,96,82,68,29.88,29.80,4,1,7,0.00
2014-6-5,63.7,61.3,54.3,62.8,60.5,53.5,99,97,92,29.82,29.68,4,0,7,0.34
2014-6-6,79.2,67.0,54.0,59.1,56.1,53.1,99,70,44,29.92,29.73,8,2,14,0.01
2014-6-7,87.8,73.8,51.1,67.1,59.4,50.8,99,64,34,29.98,29.92,5,1,8,0.00
2014-6-8,92.8,77.1,53.2,66.0,59.3,51.4,99,59,27,29.98,29.91,4,1,8,0.00
2014-6-9,84.4,70.5,57.6,64.2,59.2,54.5,96,69,42,30.04,29.94,6,1,11,0.00
2014-6-10,87.8,72.6,62.2,72.9,66.3,59.0,98,82,53,30.12,29.96,10,1,16,0.34
2014-6-11,74.3,66.6,59.0,58.7,55.6,52.1,96,69,50,30.20,30.12,5,1,10,0.01
2014-6-12,69.1,64.8,57.7,65.8,61.6,52.8,99,89,78,30.18,30.04,3,0,6,0.00
2014-6-13,67.6,63.8,60.4,66.2,62.9,59.9,99,97,93,30.07,29.82,4,0,6,0.53
2014-6-14,78.3,67.2,60.4,68.7,64.8,60.2,99,92,70,29.88,29.83,4,0,7,0.01
2014-6-15,83.3,67.2,51.1,59.7,55.7,50.8,99,69,42,30.10,29.95,4,2,8,0.00
2014-6-16,88.7,73.6,50.4,59.0,52.4,43.9,99,52,24,30.18,30.06,7,1,9,0.00
2014-6-17,89.8,74.4,60.4,72.6,64.5,54.3,91,72,50,30.11,29.91,8,2,11,0.00
2014-6-18,89.1,79.6,67.5,69.9,66.5,61.8,99,66,46,29.99,29.78,8,2,14,0.05
2014-6-19,88.2,79.0,56.8,67.7,57.0,44.2,97,50,30,30.01,29.94,7,2,11,0.00
2014-6-20,80.8,70.1,48.2,55.3,44.1,36.9,98,43,22,30.01,29.92,9,2,16,0.00
2014-6-21,82.4,66.0,45.7,59.8,50.7,44.9,99,62,32,30.00,29.91,5,1,11,0.00
2014-6-22,83.5,69.1,48.0,60.2,53.7,47.3,99,62,33,30.06,29.96,4,1,8,0.00
2014-6-23,88.7,73.9,50.0,62.6,55.9,49.7,99,56,30,30.20,30.06,8,2,11,0.00
2014-6-24,85.5,75.4,52.9,64.1,59.3,51.4,99,59,45,30.21,30.06,10,3,14,0.00
2014-6-25,88.7,79.3,63.7,71.5,68.9,57.5,95,72,54,30.06,29.91,10,3,17,0.00
2014-6-26,88.5,74.4,61.3,73.7,68.4,59.0,99,82,53,30.05,29.82,6,1,10,0.20
2014-6-27,86.5,73.2,54.5,62.1,54.8,46.5,99,56,31,30.25,30.04,6,2,11,0.00
2014-6-28,91.4,75.8,51.4,64.4,57.9,49.9,99,59,26,30.32,30.24,4,1,8,0.00
2014-6-29,140.0,67.5,0.0,99.9,62.0,52.8,99,79,53,30.30,29.94,8,1,9,0.00
2014-6-30,89.2,73.7,59.2,65.7,62.1,56.8,99,69,42,29.93,29.76,8,2,10,0.00
2014-7-1,90.9,82.4,66.4,73.1,70.5,61.8,97,68,54,29.77,29.64,11,3,17,0.00
2014-7-2,93.2,83.1,71.2,76.4,73.1,67.0,95,73,56,29.76,29.64,17,3,21,0.00
2014-7-3,95.2,84.8,72.7,76.9,73.3,70.4,98,70,47,29.80,29.70,8,2,12,0.00
2014-7-4,75.0,67.4,62.1,72.7,66.6,61.3,99,97,90,29.82,29.64,4,1,10,1.04
2014-7-5,82.8,72.2,56.5,62.1,52.1,45.1,99,53,31,29.85,29.63,10,3,16,0.08
2014-7-6,87.3,77.6,54.9,62.0,56.9,51.1,95,51,34,29.85,29.71,11,3,18,0.00
2014-7-7,89.1,76.6,67.6,73.1,68.9,63.2,92,78,50,29.71,29.53,8,3,11,0.01
2014-7-8,93.0,82.4,67.8,72.7,70.2,66.3,99,68,48,29.64,29.51,10,4,15,0.02
2014-7-9,90.9,81.5,69.8,71.6,66.3,61.6,93,62,40,29.76,29.50,10,3,14,0.00
2014-7-10,88.9,76.0,62.4,65.9,61.2,56.4,99,63,36,29.97,29.76,5,1,7,0.00
2014-7-11,88.2,76.2,62.8,65.2,61.6,57.8,97,63,40,30.05,29.97,3,1,4,0.00
2014-7-12,94.5,80.3,56.5,66.9,62.3,56.2,99,58,34,30.04,29.94,9,2,12,0.00
2014-7-13,86.4,79.0,65.5,69.6,66.5,60.7,93,67,49,29.94,29.75,11,4,16,0.00
2014-7-14,88.3,77.5,70.7,74.1,72.5,69.8,99,86,59,29.74,29.67,7,1,9,1.11
2014-7-15,86.4,78.6,0.0,76.5,74.4,69.4,99,86,70,29.67,29.57,11,2,14,0.24
2014-7-16,80.1,74.3,68.2,76.2,71.6,67.9,99,91,77,29.66,29.56,4,1,6,0.12
2014-7-17,86.7,75.7,60.6,67.8,61.5,55.2,99,65,36,29.87,29.66,8,1,11,0.00
2014-7-18,88.2,73.2,54.9,68.2,61.2,54.0,99,70,36,30.05,29.89,4,1,7,0.00
2014-7-19,82.6,71.2,56.1,69.1,65.7,55.8,99,84,54,30.07,30.01,4,1,6,0.00
2014-7-20,84.4,73.1,57.7,67.0,59.6,55.2,99,66,40,30.02,29.94,4,1,9,0.00
2014-7-21,89.4,75.8,55.2,67.5,62.6,54.4,99,67,38,30.00,29.94,6,1,8,0.00
2014-7-22,95.4,83.4,59.7,71.7,67.9,59.4,99,62,41,29.97,29.83,8,2,11,0.00
2014-7-23,92.1,83.3,67.8,75.2,72.3,66.1,95,70,55,29.81,29.58,11,3,50,0.00
2014-7-24,83.5,73.7,0.0,70.8,67.8,63.5,99,80,60,29.70,29.55,6,1,8,0.01
2014-7-25,86.9,73.9,53.6,66.5,60.0,52.8,99,66,39,29.81,29.71,4,1,8,0.00
2014-7-26,87.4,76.1,58.6,67.0,61.7,55.8,99,63,37,29.80,29.71,9,3,14,0.00
2014-7-27,81.7,74.5,66.2,74.0,71.0,64.8,98,89,74,29.72,29.48,8,2,11,0.25
2014-7-28,85.8,76.7,64.4,74.0,68.8,62.2,99,78,60,29.49,29.27,9,3,15,0.28
2014-7-29,81.7,72.6,56.7,65.0,59.0,55.2,99,65,43,29.76,29.37,8,2,11,0.00
2014-7-30,84.9,71.4,53.6,62.8,57.1,48.5,99,65,33,29.86,29.75,7,1,9,0.00
2014-7-31,86.5,74.8,54.1,66.7,60.7,53.3,99,64,43,29.98,29.85,10,2,14,0.00
2014-8-1,89.4,78.2,61.5,70.9,67.5,61.0,99,71,47,30.04,29.96,10,2,15,0.00
2014-8-2,74.7,67.8,62.6,69.1,64.3,60.3,99,89,69,30.03,29.94,4,0,8,0.05
2014-8-3,81.9,71.1,58.6,68.0,64.7,58.4,99,81,58,29.94,29.85,4,1,8,0.02
2014-8-4,91.2,78.6,63.0,69.5,66.7,62.1,99,69,42,29.86,29.81,8,2,10,0.00
2014-8-5,93.2,75.0,62.6,71.1,66.4,60.4,99,78,37,29.84,29.70,4,1,6,0.00
2014-8-6,72.3,67.5,64.9,67.6,65.9,63.7,99,95,83,29.71,29.64,2,0,4,0.00
2014-8-7,82.9,65.1,53.4,64.1,57.3,52.8,99,80,41,29.76,29.66,4,1,6,0.01
2014-8-8,86.5,67.8,52.9,61.4,56.2,52.3,99,72,34,29.84,29.75,3,1,6,0.00
2014-8-9,89.2,69.6,55.0,65.5,59.8,54.2,99,76,32,29.90,29.83,4,1,7,0.00
2014-8-10,91.8,71.2,55.8,64.4,59.6,53.9,99,72,31,29.93,29.89,4,1,6,0.00
2014-8-11,92.8,78.0,56.8,69.3,62.6,56.0,99,62,32,29.96,29.91,8,2,11,0.00
2014-8-12,83.3,74.7,57.9,67.9,62.5,55.1,99,68,42,29.94,29.83,9,2,17,0.00
2014-8-13,70.0,67.9,65.5,69.4,67.4,65.2,99,98,86,29.81,29.43,4,1,11,1.32
2014-8-14,79.2,68.5,54.7,62.1,54.3,48.8,99,64,36,29.68,29.50,7,2,12,0.01
2014-8-15,74.3,64.8,53.1,59.3,54.8,51.9,99,72,49,29.74,29.62,8,1,10,0.00
2014-8-16,60.3,56.2,53.2,57.8,55.1,52.7,99,96,85,29.77,29.73,2,1,4,0.00
2014-8-17,82.4,70.5,59.4,66.1,61.1,56.6,99,74,45,29.72,29.59,7,1,10,0.02
2014-8-18,82.4,70.6,53.6,59.6,55.7,50.3,99,62,34,29.69,29.61,8,2,12,0.00
2014-8-19,86.7,71.4,47.1,60.7,55.5,46.9,99,62,33,29.76,29.67,6,1,8,0.00
2014-8-20,89.4,73.8,51.3,66.1,59.3,51.0,99,65,36,29.87,29.76,4,1,7,0.00
2014-8-21,84.2,71.6,53.8,65.5,61.3,52.9,99,72,46,29.91,29.85,4,1,7,0.00
2014-8-22,74.5,68.4,61.0,66.7,63.5,60.2,98,85,70,29.92,29.86,4,1,8,0.19
2014-8-23,79.9,68.2,55.8,63.5,60.3,55.3,99,77,52,29.95,29.88,5,1,10,0.00
2014-8-24,87.3,71.6,51.4,64.6,59.8,51.2,99,71,40,29.95,29.91,5,1,10,0.00
2014-8-25,95.0,78.5,55.8,70.5,64.5,55.5,99,67,36,29.97,29.91,4,1,7,0.00
2014-8-26,94.5,79.6,58.5,72.1,65.8,58.2,99,67,37,29.97,29.86,5,1,8,0.00
2014-8-27,91.6,79.5,60.4,71.5,68.5,60.2,99,72,51,29.86,29.66,9,2,11,0.02
2014-8-28,70.2,65.8,63.0,69.6,65.3,62.1,99,98,97,29.66,29.61,2,0,2,0.01
2014-8-29,63.3,55.3,50.9,56.9,52.4,50.4,99,90,75,29.94,29.81,2,0,4,0.00
2014-8-30,82.2,70.3,50.5,63.1,58.5,50.3,99,69,43,30.18,29.96,9,2,12,0.00
2014-8-31,86.5,76.9,0.0,75.3,71.8,61.9,98,83,67,29.94,29.76,11,2,115,0.06
2014-9-1,91.6,79.9,68.0,76.5,71.5,67.7,99,78,49,29.79,29.71,5,1,8,0.01
2014-9-2,93.6,81.0,68.7,77.2,72.4,68.5,99,77,50,29.74,29.58,8,1,11,0.00
2014-9-3,88.0,77.1,60.3,73.1,61.1,57.8,95,60,38,29.89,29.51,8,2,12,0.00
2014-9-4,92.7,76.4,54.0,65.5,60.7,53.1,99,63,35,29.99,29.88,8,1,11,0.00
2014-9-5,90.3,79.9,61.7,73.0,69.5,61.1,99,73,52,29.97,29.78,10,3,15,0.00
2014-9-6,91.8,81.1,70.3,76.0,73.8,69.5,98,80,57,29.78,29.57,11,3,17,0.12
2014-9-7,84.0,73.1,56.5,65.4,54.2,42.3,99,56,27,29.99,29.72,6,1,10,0.04
2014-9-8,82.4,68.3,50.7,59.1,52.4,47.9,99,61,31,30.17,30.01,8,1,11,0.00
2014-9-9,74.7,65.9,50.9,57.9,54.7,50.6,99,69,50,30.14,29.99,6,1,11,0.00
2014-9-10,82.4,67.3,54.5,61.0,58.6,53.7,99,76,43,29.98,29.84,4,1,8,0.00
2014-9-11,79.9,71.7,60.6,69.9,66.1,57.0,99,83,69,29.83,29.59,11,3,19,0.00
2014-9-12,80.1,66.6,50.2,56.7,51.9,47.3,99,62,36,30.03,29.72,6,1,11,0.00
2014-9-13,69.4,60.5,45.9,57.8,54.6,45.1,99,82,63,30.05,29.90,5,1,8,0.18
2014-9-14,74.7,56.0,0.0,55.8,48.6,44.1,99,78,37,30.02,29.89,4,1,9,0.01
2014-9-15,74.5,54.3,39.6,50.2,44.9,39.3,99,77,34,30.03,29.89,4,1,8,0.00
2014-9-16,68.9,56.1,45.7,58.4,52.1,44.9,99,88,64,29.88,29.74,4,1,5,0.00
2014-9-17,77.0,57.2,43.3,55.4,47.0,41.1,99,76,29,29.80,29.73,4,1,5,0.00
2014-9-18,80.2,58.2,39.6,53.4,47.5,39.3,99,73,33,29.93,29.72,2,1,4,0.00
2014-9-19,67.3,51.2,37.6,43.6,37.4,31.6,96,64,28,30.20,29.93,3,1,4,0.00
2014-9-20,75.6,61.2,33.6,57.8,52.7,33.3,99,76,52,30.16,29.90,9,2,14,0.00
2014-9-21,81.1,67.6,54.3,73.0,65.1,53.5,99,92,72,29.91,29.42,6,1,14,0.14
2014-9-22,76.3,65.4,48.2,67.2,48.9,40.1,99,57,39,29.88,29.36,13,3,20,0.00
2014-9-23,76.5,60.5,37.0,50.8,45.6,36.3,99,63,34,30.21,29.90,8,1,10,0.00
2014-9-24,75.6,62.4,42.4,56.7,52.4,42.2,99,72,41,30.42,30.24,7,1,11,0.00
2014-9-25,62.6,57.5,48.6,56.6,53.0,48.3,99,86,75,30.34,30.06,4,1,7,0.00
2014-9-26,82.8,67.2,51.6,57.9,54.8,50.5,98,69,39,30.04,29.95,6,1,10,0.00
2014-9-27,93.0,67.8,48.4,63.4,58.3,48.1,99,76,29,29.99,29.94,3,0,5,0.00
2014-9-28,91.8,73.9,50.9,67.7,61.8,50.6,99,71,40,29.97,29.82,9,1,11,0.00
2014-9-29,81.9,65.2,55.4,67.5,60.0,55.1,99,85,52,29.84,29.74,5,1,8,0.00
2014-9-30,60.1,57.6,55.4,57.8,56.4,55.1,99,96,90,29.85,29.78,6,1,8,0.02
2014-10-1,58.5,56.7,55.9,58.2,56.5,55.7,99,99,98,29.92,29.82,5,1,10,0.39
2014-10-2,60.6,53.9,45.9,57.1,52.8,45.1,99,96,84,29.98,29.89,4,1,7,0.32
2014-10-3,67.6,51.9,41.7,54.5,49.4,41.5,99,92,61,29.93,29.72,4,0,5,0.01
2014-10-4,62.6,57.8,52.7,61.9,56.9,52.2,99,97,92,29.71,29.34,4,1,8,0.27
2014-10-5,68.2,54.3,39.6,57.1,40.6,33.0,99,65,30,29.75,29.39,10,1,13,0.00
2014-10-6,70.9,54.7,32.5,51.7,46.0,32.3,99,76,34,29.94,29.78,11,1,17,0.00
2014-10-7,76.3,67.0,44.6,63.5,57.0,43.8,99,72,47,29.94,29.81,11,3,22,0.00
2014-10-8,77.7,62.5,51.8,62.9,51.2,45.3,99,70,35,29.76,29.52,9,1,13,0.05
2014-10-9,71.2,57.3,41.0,47.3,40.6,33.3,97,58,31,29.79,29.69,12,2,19,0.00
2014-10-10,67.8,49.7,36.9,45.0,40.8,36.1,99,76,41,29.93,29.81,5,1,10,0.00
2014-10-11,54.9,46.5,38.1,50.6,45.6,37.9,99,97,82,29.95,29.87,3,0,5,0.26
2014-10-12,70.0,51.2,34.0,50.0,40.7,33.3,99,73,34,30.10,29.94,5,1,9,0.01
2014-10-13,63.5,55.9,31.6,55.5,50.3,31.4,99,82,66,30.15,30.06,8,1,12,0.00
2014-10-14,79.0,70.1,54.5,66.7,63.3,53.7,99,80,59,30.06,29.98,10,3,16,0.00
2014-10-15,80.1,69.7,55.9,71.1,66.1,55.7,99,89,66,29.95,29.76,8,1,13,0.00
2014-10-16,70.9,68.2,60.3,70.3,67.5,60.0,99,98,94,29.75,29.48,9,2,17,0.67
2014-10-17,77.4,65.6,54.7,61.9,56.4,50.6,99,75,45,29.51,29.42,13,2,125,0.01
2014-10-18,72.0,62.6,52.7,63.3,57.0,51.7,99,83,61,29.47,29.30,8,1,11,0.07
2014-10-19,60.3,50.3,41.9,49.6,36.1,30.5,89,59,39,29.75,29.41,12,3,18,0.01
2014-10-20,63.3,49.2,29.1,40.7,34.6,26.9,95,60,28,29.87,29.78,9,2,13,0.00
2014-10-21,71.4,55.6,40.5,56.9,52.2,39.5,99,89,58,29.79,29.68,4,1,5,0.00
2014-10-22,53.4,50.4,48.2,52.7,50.0,47.9,99,99,98,29.81,29.61,11,3,19,0.70
2014-10-23,53.2,50.7,46.9,52.7,50.3,46.7,99,99,95,29.62,29.43,9,3,15,1.06
2014-10-24,54.3,50.9,48.4,50.1,46.8,44.3,99,86,76,29.55,29.47,6,2,14,0.07
2014-10-25,70.5,53.0,37.2,51.8,46.0,36.4,99,80,33,30.17,29.31,4,1,8,0.00
2014-10-26,61.3,51.3,43.3,49.3,42.8,38.4,99,74,45,29.52,29.25,9,2,17,0.00
2014-10-27,68.0,51.2,39.6,42.6,40.8,38.5,96,70,36,29.83,29.52,6,1,9,0.00
2014-10-28,73.8,57.2,36.1,58.6,50.7,35.4,99,81,50,29.86,29.74,8,1,12,0.00
2014-10-29,77.5,58.6,48.7,64.1,51.6,44.2,99,80,55,29.72,29.55,8,1,13,0.06
2014-10-30,62.8,44.8,34.5,49.0,38.8,33.5,99,82,46,29.78,29.68,4,0,8,0.01
2014-10-31,58.8,48.0,33.4,46.4,40.1,33.2,99,75,55,29.86,29.75,5,1,11,0.00
2014-11-1,45.9,41.8,38.3,42.8,39.5,33.3,99,92,68,29.74,29.58,9,2,14,0.51
2014-11-2,42.8,40.4,38.1,37.6,25.0,10.5,96,56,31,29.64,29.43,14,5,24,0.00
2014-11-3,52.0,42.0,35.8,34.9,30.6,11.4,78,65,23,29.87,29.67,5,1,8,0.00
2014-11-4,71.1,54.2,37.9,45.3,33.8,24.0,85,51,20,29.95,29.79,7,1,9,0.00
2014-11-5,70.0,56.1,39.4,49.7,43.1,38.2,96,65,34,29.95,26.81,10,1,14,0.00
2014-11-6,47.7,46.0,39.2,47.4,45.5,38.2,99,98,93,29.93,29.31,4,0,6,0.34
2014-11-7,52.2,45.4,38.1,45.4,36.7,29.0,98,73,54,29.61,29.27,12,3,20,0.01
2014-11-8,55.8,41.6,27.9,31.8,25.5,17.4,85,57,24,29.79,29.62,8,2,14,0.00
2014-11-9,59.7,48.5,38.1,40.6,37.0,33.4,83,66,44,29.75,29.68,6,2,9,0.00
2014-11-10,66.0,43.2,27.7,41.9,34.6,26.9,99,76,27,30.02,29.81,2,0,4,0.00
2014-11-11,69.1,55.2,29.7,53.7,48.8,29.4,99,81,54,29.99,29.75,8,1,11,0.00
2014-11-12,69.4,57.4,49.5,58.6,52.6,37.4,99,85,57,29.76,29.59,7,1,11,0.00
2014-11-13,44.4,41.7,34.3,36.0,32.9,30.2,95,71,57,29.78,29.76,3,1,5,0.09
2014-11-14,49.5,32.2,27.0,37.3,25.0,16.6,99,76,37,29.89,29.69,5,2,9,0.22
2014-11-15,45.5,27.8,0.0,27.4,17.9,12.0,94,66,27,30.12,29.89,5,1,8,0.00
2014-11-16,42.1,34.8,19.0,28.9,25.5,14.7,90,69,51,29.95,29.76,7,1,12,0.00
2014-11-17,41.7,38.0,33.8,41.5,37.2,29.0,99,97,76,29.71,29.02,2,0,3,0.97
2014-11-18,44.4,33.4,23.2,40.9,9.1,-8.0,99,39,20,29.53,29.08,10,3,20,0.00
2014-11-19,33.3,30.9,20.1,13.5,1.5,-3.9,52,29,25,29.74,29.54,7,2,13,0.00
2014-11-20,41.4,38.9,25.9,21.4,19.9,10.9,68,46,44,29.64,29.47,6,3,9,0.00
2014-11-21,44.4,33.5,19.9,14.3,8.2,3.0,56,35,27,30.01,29.51,8,3,14,0.00
2014-11-22,48.7,35.6,16.2,21.2,10.8,3.0,75,38,18,30.02,29.69,9,4,15,0.00
2014-11-23,66.2,50.3,34.2,38.7,33.4,22.2,86,55,32,29.74,29.66,6,1,8,0.00
2014-11-24,64.8,60.5,36.9,64.3,58.7,32.5,99,94,84,29.65,29.17,17,5,23,0.41
2014-11-25,62.6,54.2,38.1,56.8,37.1,23.9,99,57,27,29.67,29.31,9,1,14,0.00
2014-11-26,41.2,34.4,32.4,36.6,33.3,32.1,99,96,71,29.79,29.29,7,1,17,0.38
2014-11-27,42.1,33.6,0.0,39.3,31.1,26.8,99,90,78,30.04,29.31,5,1,8,0.32
2014-11-28,41.0,31.2,20.5,26.5,20.4,14.7,89,65,48,30.24,30.00,9,2,15,0.01
2014-11-29,44.4,30.0,15.8,26.0,16.0,8.5,84,59,25,30.37,30.24,4,1,7,0.02
2014-11-30,59.0,46.5,30.4,44.0,37.1,20.4,91,70,44,30.27,30.05,9,2,11,0.12
2014-12-1,69.6,48.1,39.0,49.1,38.7,27.5,87,71,47,30.45,30.03,8,2,11,0.01
2014-12-2,38.7,34.4,31.5,34.4,23.1,16.2,98,64,47,30.71,30.40,7,2,12,0.02
2014-12-3,48.6,42.5,34.3,48.3,41.2,25.4,99,95,60,30.38,29.91,10,2,21,0.24
2014-12-4,50.4,38.9,27.3,28.3,20.6,11.3,87,50,25,30.41,30.12,7,2,13,0.00
2014-12-5,47.3,34.5,19.4,33.6,27.0,13.5,95,75,40,30.68,30.44,4,0,5,0.21
2014-12-6,40.5,37.3,34.3,40.2,36.7,33.6,99,98,95,30.44,30.17,3,0,4,0.27
2014-12-7,0.0,-39.8,-40.0,39.5,-55.9,-58.7,67,37,31,30.26,0.00,11,5,16,0.63
2014-12-8,-40.0,-40.0,-40.0,-60.8,-61.0,-61.4,27,27,27,30.19,29.95,9,2,10,0.00
2014-12-9,-40.0,-40.0,-40.0,-60.8,-60.8,-61.4,27,27,27,29.93,28.98,11,3,19,1.24
2014-12-10,-40.0,-40.0,-40.0,-60.8,-60.9,-61.4,27,27,27,29.04,28.90,9,2,13,0.15
2014-12-11,-40.0,-40.0,-40.0,-60.8,-60.8,-61.4,27,27,27,28.99,28.92,3,0,4,0.01
2014-12-12,-40.0,-40.0,-40.0,-60.8,-61.0,-61.4,27,27,27,29.35,29.25,8,2,12,0.01
2014-12-13,45.7,35.1,23.2,28.0,20.2,-5.8,83,56,27,29.90,29.80,8,2,14,0.12
2014-12-14,50.4,42.3,27.1,32.0,28.9,22.3,88,60,46,29.88,29.82,9,3,14,0.00
2014-12-15,52.0,31.1,24.1,33.3,24.7,20.8,88,78,43,30.16,29.92,2,0,4,0.01
2014-12-16,37.8,34.4,24.4,32.8,29.8,20.6,89,83,77,30.18,29.95,2,0,2,0.05
2014-12-17,54.3,43.1,36.1,49.2,37.2,30.9,98,80,66,29.94,29.73,8,2,14,0.28
2014-12-18,46.4,39.0,35.2,30.6,27.7,24.6,79,64,51,29.89,29.75,8,3,15,0.00
2014-12-19,35.4,33.0,25.9,25.5,20.6,16.8,72,60,54,30.13,29.89,8,2,14,0.00
2014-12-20,44.8,32.7,21.2,25.3,21.9,16.0,81,65,42,30.31,30.16,5,1,8,0.00
2014-12-21,33.1,31.8,30.2,26.9,25.4,24.2,82,77,74,30.38,30.27,5,1,9,0.00
2014-12-22,46.4,38.3,32.0,36.5,31.0,25.5,96,75,59,30.41,30.29,4,1,8,0.02
2014-12-23,44.2,40.3,37.2,43.2,39.4,35.1,97,97,92,30.28,30.16,6,0,10,0.09
2014-12-24,42.4,41.2,39.2,41.7,40.5,38.4,97,97,96,30.14,29.57,4,0,6,0.37
2014-12-25,59.9,51.1,42.1,59.6,36.6,26.7,99,60,35,30.00,29.50,12,3,20,0.14
2014-12-26,55.9,41.6,28.2,34.3,28.4,22.8,86,62,37,30.19,30.00,8,2,11,0.00
2014-12-27,59.4,47.1,27.9,35.3,31.5,23.7,91,58,38,30.23,30.04,6,2,8,0.00
2014-12-28,45.0,42.3,35.6,37.5,34.9,24.0,87,75,61,30.02,29.85,5,1,11,0.02
2014-12-29,46.4,33.3,26.2,25.5,17.8,9.6,80,56,27,30.22,30.01,4,1,9,0.00
2014-12-30,35.6,25.7,16.5,10.8,-1.7,-10.8,58,31,18,30.38,30.22,8,2,13,0.00
2014-12-31,28.9,22.5,11.5,10.7,5.1,-1.2,65,47,34,30.34,30.11,5,1,8,0.00
2015-1-1,37.4,24.6,11.7,9.4,2.1,-3.9,67,40,20,30.12,29.92,11,2,17,0.00
2015-1-2,42.8,34.6,26.1,18.8,14.0,8.2,57,43,33,30.44,29.95,10,2,16,0.00